"Pseudo-MPEC" for C3T8FK1

Created 2023 Sep 19 11:22:09 UT using Find_Orb

Click here for an explanation of pseudo-MPECs

 
 Astrometry: 
     C3T8FK1*1C2023 09 18.22160423 31 35.188+00 27 23.94   ~9I6M 18.84GVNEOCP703
     C3T8FK1 1C2023 09 18.22691923 31 31.951+00 29 47.90   ~9I6M 18.68GVNEOCP703
     C3T8FK1 1C2023 09 18.23223523 31 28.607+00 32 10.72   ~9I6M 19.16GVNEOCP703
     C3T8FK1 1C2023 09 18.23755423 31 25.190+00 34 35.72   ~9I6M 19.18GVNEOCP703
     C3T8FK1 mC2023 09 18.27173623 31 02.946+00 50 32.89   ~9I6q 19.14GVNEOCPI52
     C3T8FK1 mC2023 09 18.27190923 31 02.795+00 50 37.75   ~9I6q 18.84GVNEOCPI52
     C3T8FK1 mC2023 09 18.27207923 31 02.687+00 50 42.72   ~9I6q 19.06GVNEOCPI52
     C3T8FK1 mC2023 09 18.27225823 31 02.564+00 50 47.90   ~9I6q 18.87GVNEOCPI52
     C3T8FK1 mC2023 09 18.41305323 29 20.504+02 04 23.84   ~9IA7 18.68GVNEOCPI52
     C3T8FK1 mC2023 09 18.41322323 29 20.378+02 04 29.64   ~9IA7 18.95GVNEOCPI52
     C3T8FK1 mC2023 09 18.41339223 29 20.245+02 04 35.62   ~9IA7 18.40GVNEOCPI52
     C3T8FK1 mC2023 09 18.41356423 29 20.162+02 04 41.05   ~9IA7       VNEOCPI52
     C3T8FK1 KB2023 09 18x!1t.2LBVI/^rB\pPwJ1+UoMyc)-Ir_$^Y2p+TIW5a*1CbtJsZYiL76
     C3T8FK1 KB2023 09 18-X,6?Ub$3F]E=BTwEeg,ox)o`$s4^RWEdcAstrometry5)rw-+DDL76
     C3T8FK1 KB2023 09 18*;@^leJYKsXUi3bRqo/p3L+=D($O#4uCrhcvG4JYi9xU*M$nC8tNL76
     C3T8FK1 KC2023 09 18/?13H7j\g4/UQ_Ve/6/he2L96@6(o?74*%6AoMb]6redacted;=4L04
     C3T8FK1 KC2023 09 18utT_0caxNMJAE2F:Q8(5qrVfEs$[6810Fptc1Ll_clickQ3WPy#jL04
     C3T8FK1 KC2023 09 18*oL?fDP-jIe%_W6J$,xgrKY1VGh,FkPQ;p[BjI-Jce`3CGe0?jjPL04
     C3T8FK1  C2023 09 18Fk,7c\BX89n9m6)=x-cnm,oXp4#:I+6VCSl?2+2ZDp'Cn5I1]pqRM28
     C3T8FK1  C2023 09 18(hf+\^/hN?e'1*m=M:CxB@l1CXn9OFAqf'TJ6BxUaY@kM7bTQ_RsM28
     C3T8FK1 KC2023 09 18%y^HWR;`x7Xdfh.b@=I]n't15phSPA8RRjn8i_J-W6Pexp(!J?pQL04
     C3T8FK1 1C2023 09 18.83079 23 24 49.74 +07 36 02.0    ~9IKb 19.1 VXNEOCP033
     C3T8FK1 1C2023 09 18.83108 23 24 49.39 +07 36 21.5    ~9IKb 19.1 VXNEOCP033
     C3T8FK1 1C2023 09 18.83136 23 24 49.03 +07 36 40.4    ~9IKb 19.3 VXNEOCP033
     C3T8FK1 1C2023 09 18.83171 23 24 48.60 +07 37 03.9    ~9IKb 19.4 VXNEOCP033
     C3T8FK1 KB2023 09 18n[AtQcM[*e4\0\tSuy`R56=hayihere19=2t^`G4;QS)g=e;p`:1958
     C3T8FK1 KB2023 09 18lP!/rb.at'U79)Ocvh%'u.n9N//hJ@[TBDL^SgXZvIMZRMC(o/k1958
     C3T8FK1 1C2023 09 18W*9Am'Ehyda%HnF[Nw^UW7)?R#OCh`M['uLcY%Mt^uh_V\;q9,TmC40
     C3T8FK1 KB2023 09 18K-JT*l;2MB-jIp#NCwgreL)[.x,!*;n/sd,e%m!K]Ju`Sr7@klN7958
     C3T8FK1 1C2023 09 18TCU08#?:v)Gb?/dkFh@`u9w;^Sa2jo8gJ(u@$YAtAa)for_,O(L5C40
     C3T8FK1 1C2023 09 18#e2s#e45/*'w.)#6Yw;8s53Zss@HUl822$+5D@%S$`*2D-I#_;X-C40
     C3T8FK1 KC2023 09 18Nl!2)0$ACjE(Zi_wE'9iiFNZa`gjRHEQ0vrSgq[G;^`8_sW)bMOjM21
     C3T8FK1 HC2023 09 18-k*O[6wZTNjQwKY?@qY25,G!HtQ9\Bw1W4b7hj\?jY7ol06=CH-.M21
     C3T8FK1 0B2023 09 18T=W(nJdjGOG579$'OwKbiuUSeLwgYmvgexplanation0-JY14IXqM49
     C3T8FK1 0B2023 09 18H/079W!Fk0TV]+Dpxt^b'bA8vkJnbr$Lxoe0e@0WQd34I1^!+vdfM49
     C3T8FK1 0B2023 09 18^+$5P))lUar.V7BXNS/mfCx[]X\JA(Qr15dgv]u-N9O,A(;4H8QtM49
     C3T8FK1 KB2023 09 18.97017323 21 29.27 +10 37 10.1    ~9INq 17.7 GVNEOCPI93
     C3T8FK1 KB2023 09 18.97127023 21 27.27 +10 38 47.4    ~9INq 18.1 GVNEOCPI93
     C3T8FK1 KB2023 09 18.97234323 21 25.34 +10 40 23.2    ~9INq 18.6 GVNEOCPI93
     C3T8FK1 KB2023 09 18.97342223 21 23.38 +10 41 59.1    ~9INq 18.1 GVNEOCPI93
     C3T8FK1 KB2023 09 18.97450023 21 21.42 +10 43 35.6    ~9INq 18.3 GVNEOCPI93

Station data:
(033) Karl Schwarzschild Observatory, Tautenburg  (N50.980137 E11.711240)
   Germany.  Observer B. Stecklum. 1.34-m f/3 Schmidt + CCD.
(703) Catalina Sky Survey  (N32.417003 W110.732640)  US/Arizona.  Observer E.
   J. Christensen. 0.68 m Schmidt + 10K CCD.
(958) Observatoire de Dax  (N43.693324 W1.030390)  France.  Observer P.
   Dupouy. 0.32-m Schmidt-Cassegrain.
(C40) Kuban State University Astrophysical Observatory  (N45.019544
   E39.030800)  Russia.  Observer A. Ivanov. 0.51-m f/8 reflector + CCD.
(I52) Steward Observatory, Mt. Lemmon Station  (N32.442544 W110.788920)
   US/Arizona.  Observers T. A. Pruyne, B. M. Africano, E. J. Christensen, G.
   A. Farneth, D. C. Fuls, A. R. Gibbs, A. D. Grauer, H. Gröller, J. A.
   Johnson, R. A. Kowalski, S. M. Larson, G. J. Leonard, D. Rankin, R. L.
   Seaman, F. C. Shelly, K. W. Wierzchoś. 1.0-m prime focus + CCD.
(I93) St Pardon de Conques  (N44.558708 W0.203000)  France.  Observers F.
   Losse, W. D'Anna. Measurer F. Losse. 0.40-m f/3.7 reflector + CCD.
(L04) ROASTERR-1 Observatory, Cluj-Napoca  (N46.820952 E23.596400)  Romania.
   Observer L. Hudin. 0.3-m f/5 reflector + CCD0.1-m f/9 refractor + CCD.
(L76) Nomad Observatory, Kochevanchik  (N46.976193 E39.651610)  Russia.
   Observer E. Romas. 0.2-m f/5 reflector + CCD.
(M21) Schiaparelli Southern Observatory, Hakos  (S23.236549 E16.361440)
   Namibia.  Observers A. Aletti, F. Bellini, L. Buzzi, G. Galli. Measurer L.
   Buzzi. 0.36-m f/8.4 reflector + CCD.
(M28) Lesedi Telescope-SAAO Observatory, Sutherland  (S32.379790 E20.810640)
   South Africa.  Observer N. Erasmus. 1.0-m f/8 Reflector + CCD.
(M49) IAS Remote Observatory, Hakos  (S23.236549 E16.361720)  Namibia.
   Observers D. Husar, M. Junius. Measurer D. Husar. 0.25-m f/4.6 reflector +
   CCD.

Orbital elements:  C3T8FK1
   Perihelion 2023 Nov 8.50205 +/- 0.00677 TT = 12:02:57 (JD 2460257.00205)
Epoch 2023 Sep 19.0 TT = JDT 2460206.5   Earth MOID: 0.0031   Ve: 0.0352
M 336.22201982 +/- 0.016            Ma: 0.0080                   AutoNEOCP
n   0.47083194 +/- 0.00026          Peri.   82.84848 +/- 0.0008
a   1.63640990 +/- 0.000601         Node   354.11787 +/- 0.00006
e   0.5733682 +/- 0.000198          Incl.    4.59409 +/- 0.0013
P   2.09/764.59d           H 28.26  G  0.15   U  7.2
q 0.69814446 +/- 6.69e-5    Q 2.57467534 +/- 0.00127      (J2000 ecliptic)
40 of 41 observations 2023 Sept. 18 (18.1 hr); mean residual 0".67
Residuals in arcseconds: 
230918 703  .41+  .37+    230918 L76  .05+  .39-    230918 958  1.1-  2.4+    
230918 703  .89+  1.1+    230918 L04  .41+  .72-    230918 C40  .67-  .16+    
230918 703  .35+  .35-    230918 L04  .37+  .21-    230918 C40  1.1+  1.2-    
230918 703  .69-  .62-    230918 L04  .50-  .04+    230918 M21  .05-  .64+    
230918 I52  .31+  .12-    230918 M28  .11-  1.6-    230918 M21  .09-  .56+    
230918 I52  .20-  .20-    230918 M28( 1.8-  3.4+)   230918 M49  .45-  .38+    
230918 I52  .11-  .10-    230918 L04  .64-  .36+    230918 M49  .29+  .31+    
230918 I52  .14-  .04-    230918 033  .25+  .33-    230918 M49  .12+  .20+    
230918 I52  .41-  .05+    230918 033  .46+  .38-    230918 I93  .45+  .55-    
230918 I52  .38-  .02+    230918 033  .34+  .36-    230918 I93  .13+  .68-    
230918 I52  .48-  .19+    230918 033  .49+  .48-    230918 I93  .28+  .39-    
230918 I52  .21+  .29-    230918 958  .90-  2.2+    230918 I93  .23+  .75-    
230918 L76  .22-  .23-    230918 958  .35+  2.3+    230918 I93  .22+  .63-    
230918 L76  .13+  .41-    230918 C40  .49-  .76-    

Ephemerides (geocentric):
Date (UTC) HH   RA             Dec           delta  r     elong  mag " sig PA
---- --------  ------------   ------------  ------ ------ -----  --- --------
2023 09 19 11  22 54 54.205   +33 57 00.46  641531 1.0081 142.5 17.9 5.23 166
2023 09 19 12  22 49 18.803   +37 44 30.88  603840 1.0077 138.6 17.9 6.57 165
2023 09 19 13  22 42 17.012   +41 59 34.13  569388 1.0073 134.1 17.9 8.16 163
2023 09 19 14  22 33 11.698   +46 43 16.08  538799 1.0069 129.2 17.9 10.0 162
2023 09 19 15  22 21 02.029   +51 54 33.67  512764 1.0065 123.6 18.0 12.1 159
2023 09 19 16  22 04 02.666   +57 28 39.54  492007 1.0062 117.6 18.1 14.3 156
2023 09 19 17  21 39 00.204   +63 14 35.70  477219 1.0058 111.0 18.2 16.4 150
2023 09 19 18  20 59 44.786   +68 50 54.69  468965 1.0054 104.2 18.4 18.4 141
2023 09 19 19  19 55 16.479   +73 36 49.05  467590 1.0050  97.2 18.6 19.8 126
2023 09 19 20  18 15 43.037   +76 21 17.66  473155 1.0046  90.3 18.9 20.8 102
2023 09 19 21  16 22 56.962   +75 59 24.27  485420 1.0042  83.6 19.3 21.1  74
2023 09 19 22  14 58 32.563   +73 06 06.63  503897 1.0038  77.4 19.7 20.8  54
2023 09 19 23  14 06 33.214   +69 07 31.22  527931 1.0034  71.6 20.1 20.1  41
2023 09 20 00  13 34 26.058   +64 56 33.96  556803 1.0031  66.4 20.5 19.1  34
2023 09 20 01  13 13 23.364   +60 55 49.59  589803 1.0027  61.8 20.9 18.0  29
2023 09 20 02  12 58 45.615   +57 13 44.00  626276 1.0023  57.6 21?? 16.8  26
2023 09 20 03  12 48 04.835   +53 52 35.04  665652 1.0019  54.0 21?? 15.7  24
2023 09 20 04  12 39 58.399   +50 51 59.43  707445 1.0015  50.7 22?? 14.6  23
2023 09 20 05  12 33 37.403   +48 10 25.99  751252 1.0011  47.9 22?? 13.5  21
2023 09 20 06  12 28 31.342   +45 45 59.88  796739 1.0007  45.3 23?? 12.6  21
2023 09 20 07  12 24 20.313   +43 36 43.55  843636 1.0003  43.1 23?? 11.7  20
2023 09 20 08  12 20 50.821   +41 40 46.49  891718 1.0000  41.1 23?? 10.9  19
2023 09 20 09  12 17 53.419   +39 56 29.02  940805 0.9996  39.3 24?? 10.2  19
2023 09 20 10  12 15 21.301   +38 22 23.31  990746 0.9992  37.6 24?? 9.60  18
2023 09 20 11  12 13 09.451   +36 57 12.94  .00696 0.9988  36.2 24?? 9.02  18
2023 09 20 12  12 11 14.087   +35 39 51.88  .00730 0.9984  34.8 25?? 8.51  18
2023 09 20 13  12 09 32.312   +34 29 23.24  .00765 0.9980  33.6 25?? 8.04  18
2023 09 20 14  12 08 01.866   +33 24 58.10  .00800 0.9976  32.5 25?? 7.61  17
2023 09 20 15  12 06 40.963   +32 25 54.34  .00835 0.9973  31.5 26?? 7.22  17
2023 09 20 16  12 05 28.172   +31 31 35.61  .00871 0.9969  30.6 26?? 6.87  17
2023 09 20 17  12 04 22.333   +30 41 30.54  .00907 0.9965  29.8 26?? 6.55  17
2023 09 20 18  12 03 22.498   +29 55 11.91  .00942 0.9961  29.0 26?? 6.25  17
2023 09 20 19  12 02 27.883   +29 12 16.09  .00979 0.9957  28.3 26?? 5.98  17
2023 09 20 20  12 01 37.834   +28 32 22.47  .01015 0.9953  27.6 27?? 5.73  17
2023 09 20 21  12 00 51.801   +27 55 13.03  .01051 0.9949  27.0 27?? 5.50  17
2023 09 20 22  12 00 09.322   +27 20 31.96  .01088 0.9946  26.4 27?? 5.28  17
2023 09 20 23  11 59 29.998   +26 48 05.35  .01124 0.9942  25.9 27?? 5.09  17
2023 09 21 00  11 58 53.493   +26 17 40.93  .01161 0.9938  25.4 27?? 4.90  17
2023 09 21 01  11 58 19.513   +25 49 07.83  .01198 0.9934  24.9 28?? 4.73  17
2023 09 21 02  11 57 47.805   +25 22 16.38  .01234 0.9930  24.4 28?? 4.57  17
2023 09 21 03  11 57 18.149   +24 56 58.01  .01271 0.9926  24.0 28?? 4.42  17
2023 09 21 04  11 56 50.351   +24 33 05.02  .01308 0.9922  23.6 28?? 4.28  16
2023 09 21 05  11 56 24.243   +24 10 30.56  .01346 0.9919  23.3 28?? 4.15  16
2023 09 21 06  11 55 59.674   +23 49 08.45  .01383 0.9915  22.9 28?? 4.03  16
2023 09 21 07  11 55 36.513   +23 28 53.13  .01420 0.9911  22.6 29?? 3.91  16
2023 09 21 08  11 55 14.641   +23 09 39.61  .01457 0.9907  22.3 29?? 3.80  16
2023 09 21 09  11 54 53.955   +22 51 23.35  .01494 0.9903  22.0 29?? 3.70  16
2023 09 21 10  11 54 34.359   +22 34 00.25  .01532 .98993  21.7 29?? 3.60  16